FW1093 Weather Reports


Display with metric or nautical units.
time (UTC)temp
F
wind
direction
speed
MPH
gust
MPH
rain 1hr
in
rain 24hr
in
rain mn
in
humidity
%
barometer
mb
20260509195342 55 290 0.0 0.0 0.32 0.43 0.42 93 1012.2
20260509194330 55 290 0.0 0.0 0.31 0.41 0.40 93 1012.2
20260509193319 55 354 0.0 0.0 0.29 0.36 0.35 92 1012.2
20260509192335 56 354 0.0 0.0 0.18 0.21 0.20 92 1012.1
20260509191329 56 153 0.0 1.0 0.10 0.13 0.12 91 1012.1
20260509190315 56 153 0.0 0.0 0.08 0.11 0.10 90 1011.8
20260509185322 56 153 0.0 1.0 0.08 0.11 0.10 88 1011.6
20260509184313 57 198 0.0 3.0 0.07 0.10 0.09 86 1011.3
20260509183348 59 153 0.0 1.0 0.04 0.07 0.06 82 1011.6
20260509182315 59 129 0.0 1.0 0.00 0.03 0.02 77 1011.4
20260509181323 60 129 0.0 0.0 0.00 0.03 0.02 75 1011.1
20260509180313 61 129 0.0 1.0 0.00 0.03 0.02 73 1011.3
20260509175408 61 129 0.0 0.0 0.00 0.03 0.02 73 1011.2
20260509174315 62 129 0.0 1.0 0.00 0.03 0.02 70 1011.2
20260509173330 62 124 0.0 0.0 0.00 0.03 0.02 71 1011.2
20260509172320 63 284 0.0 1.0 0.00 0.03 0.02 70 1011.5
20260509171336 62 49 0.0 3.0 0.00 0.03 0.02 71 1011.7
20260509170325 61 134 0.0 1.0 0.00 0.03 0.02 73 1011.7
20260509165315 61 117 0.0 1.0 0.00 0.03 0.02 73 1012.0
20260509164329 61 297 0.0 1.0 0.00 0.03 0.02 74 1012.2
20260509163320 60 278 0.0 2.0 0.00 0.03 0.02 74 1012.3
20260509162314 59 132 0.0 1.0 0.00 0.03 0.02 76 1012.5
20260509161322 59 326 1.0 3.0 0.00 0.03 0.02 77 1012.6
20260509160352 58 209 0.0 1.0 0.00 0.03 0.02 79 1012.8
20260509155325 58 167 0.0 2.0 0.00 0.03 0.02 78 1012.8
20260509154332 58 118 0.0 2.0 0.00 0.03 0.02 79 1012.8
20260509153322 58 133 0.0 1.0 0.00 0.03 0.02 80 1012.8
20260509152313 58 243 0.0 0.0 0.00 0.03 0.02 81 1013.1
20260509151327 57 167 0.0 1.0 0.00 0.03 0.02 82 1013.0
20260509150315 56 115 0.0 1.0 0.00 0.03 0.02 83 1012.9
20260509145332 56 116 0.0 1.0 0.00 0.03 0.02 84 1013.3
20260509144320 56 212 0.0 0.0 0.00 0.03 0.02 85 1012.9
20260509143329 55 212 0.0 0.0 0.00 0.03 0.02 88 1012.7
20260509142319 54 212 0.0 0.0 0.00 0.03 0.02 87 1012.9
20260509141352 54 212 0.0 0.0 0.00 0.03 0.02 87 1013.3
20260509140321 53 212 0.0 1.0 0.00 0.03 0.02 87 1012.8
20260509135357 53 324 0.0 0.0 0.00 0.03 0.02 89 1013.0
20260509134324 52 338 0.0 1.0 0.00 0.03 0.02 89 1013.1
20260509133338 51 7 0.0 2.0 0.00 0.03 0.02 89 1012.8
20260509132334 51 289 0.0 2.0 0.00 0.03 0.02 91 1013.0
20260509131320 50 276 0.0 1.0 0.00 0.03 0.02 91 1013.2
20260509130330 50 288 0.0 1.0 0.00 0.03 0.02 91 1013.5
20260509125316 50 274 0.0 0.0 0.00 0.03 0.02 91 1013.8
20260509124324 49 274 0.0 0.0 0.00 0.03 0.02 91 1013.8
20260509123313 49 276 0.0 2.0 0.00 0.03 0.02 92 1014.0
20260509122321 48 257 0.0 2.0 0.00 0.03 0.02 93 1013.7
20260509121355 48 283 0.0 0.0 0.00 0.03 0.02 94 1013.7
20260509120323 48 283 0.0 1.0 0.00 0.03 0.02 94 1014.0
20260509115312 47 283 0.0 1.0 0.00 0.03 0.02 94 1013.8
20260509114329 47 282 0.0 1.0 0.01 0.03 0.02 94 1013.9
20260509113337 47 281 0.0 1.0 0.01 0.03 0.02 95 1013.9
20260509112326 47 282 0.0 0.0 0.01 0.03 0.02 94 1013.9
20260509111315 47 281 0.0 1.0 0.01 0.03 0.02 94 1013.8
20260509110321 47 281 0.0 1.0 0.01 0.03 0.02 95 1013.8
20260509105329 47 281 0.0 1.0 0.01 0.03 0.02 95 1013.6
20260509104320 46 282 0.0 1.0 0.00 0.02 0.01 95 1013.5
20260509103314 46 329 0.0 0.0 0.00 0.02 0.01 94 1013.4
20260509102322 46 329 0.0 1.0 0.00 0.02 0.01 94 1013.5